Tracking 21605 objects as of 26-Oct-2020
HD Live streaming from Space Station
objects crossing your sky now

ATLAS H R/B

Track ATLAS H R/B now!
10-day predictions


NORAD ID: 16592
Int'l Code: 1986-014B
Perigee: 683.4 km
Apogee: 1,350.4 km
Inclination: 63.3 °
Period: 105.3 minutes
Semi major axis: 7387 km
RCS: Unknown
Launch date: February 9, 1986
Source: United States (US)
Launch site: AIR FORCE WESTERN TEST RANGE (AFWTR)

Note: This is a ROCKET BODY
aabbcc
Your satellite tracking list
Your tracking list is empty




NASA's NSSDC Master Catalog

Two Line Element Set (TLE):
1 16592U 86014B   20299.87300320 -.00000028 +00000-0 +42678-4 0  9999
2 16592 063.3237 347.5881 0451426 122.3029 242.2568 13.67174667077995
Source of the keplerian elements: McCants